Location: Capannuccia
(43.7000°N, 11.3000°E)
Time: 03:18:39
(UTC+00:00)

SL-4 R/B - Pass Details

Date: 07 June 2020
Orbit: 428 x 666 km, 51.6° (Epoch: 11 July)

Event Time Altitude Azimuth Distance (km) Brightness Sun altitude
Rises 02:48:53 0° 293° (WNW) 2,991 5.5 -7.2°
Reaches altitude 10° 02:51:46 10° 277° (W) 2,055 4.5 -6.9°
Maximum altitude 02:55:13 20° 230° (SW) 1,450 3.5 -6.4°
Drops below altitude 10° 02:58:34 10° 183° (S) 1,968 4.4 -5.9°
Sets 03:01:16 0° 166° (SSE) 2,824 5.4 -5.5°
